Time,TemperatureF,DewpointF,PressureIn,WindDirection,WindDirectionDegrees,WindSpeedMPH,WindSpeedGustMPH,Humidity,HourlyPrecipIn,Conditions,Clouds,dailyrainin,SoftwareType,DateUTC
2013-03-16 00:02:00,44.0,40.0,-100.00,North,0,7.0,11.0,83,0.00,,,-99.99,,2013-03-16 05:02:00,
2013-03-16 00:12:00,44.0,39.0,-100.00,North,0,9.0,13.0,83,0.00,,,-99.99,,2013-03-16 05:12:00,
2013-03-16 00:21:00,44.0,39.0,-100.00,North,0,10.0,14.0,84,0.00,,,-99.99,,2013-03-16 05:21:00,
2013-03-16 00:32:00,43.0,39.0,-100.00,NNW,345,7.0,12.0,86,0.00,,,-99.99,,2013-03-16 05:32:00,
2013-03-16 00:42:00,43.0,39.0,-100.00,NNW,345,7.0,12.0,86,0.00,,,-99.99,,2013-03-16 05:42:00,
2013-03-16 00:52:00,41.0,38.0,-100.00,North,0,12.0,21.0,88,0.00,,,-99.99,,2013-03-16 05:52:00,
2013-03-16 01:02:00,41.0,38.0,-100.00,North,0,12.0,21.0,88,0.00,,,-99.99,,2013-03-16 06:02:00,
2013-03-16 01:12:00,41.0,38.0,-100.00,NNW,345,10.0,19.0,89,0.00,,,-99.99,,2013-03-16 06:12:00,
2013-03-16 01:22:00,41.0,38.0,-100.00,North,0,13.0,21.0,90,0.00,,,-99.99,,2013-03-16 06:22:00,
2013-03-16 01:32:00,40.0,37.0,-100.00,NNW,345,13.0,22.0,90,0.00,,,-99.99,,2013-03-16 06:32:00,
2013-03-16 01:42:00,40.0,37.0,-100.00,NNW,345,13.0,22.0,90,0.00,,,-99.99,,2013-03-16 06:42:00,
2013-03-16 01:52:00,39.0,36.0,-100.00,North,0,7.0,12.0,90,0.00,,,-99.99,,2013-03-16 06:52:00,
2013-03-16 02:02:00,39.0,36.0,-100.00,North,0,7.0,12.0,90,0.00,,,-99.99,,2013-03-16 07:02:00,
2013-03-16 02:12:00,38.0,36.0,-100.00,North,0,13.0,18.0,90,0.00,,,-99.99,,2013-03-16 07:12:00,
2013-03-16 02:22:00,38.0,36.0,-100.00,North,0,15.0,19.0,90,0.00,,,-99.99,,2013-03-16 07:22:00,
2013-03-16 02:32:00,37.0,35.0,-100.00,North,0,11.0,19.0,90,0.00,,,-99.99,,2013-03-16 07:32:00,
2013-03-16 02:42:00,37.0,35.0,-100.00,North,0,11.0,19.0,90,0.00,,,-99.99,,2013-03-16 07:42:00,
2013-03-16 02:52:00,36.0,34.0,-100.00,North,0,12.0,19.0,90,0.00,,,-99.99,,2013-03-16 07:52:00,
2013-03-16 03:02:00,36.0,34.0,-100.00,North,0,12.0,19.0,90,0.00,,,-99.99,,2013-03-16 08:02:00,
2013-03-16 03:12:00,36.0,34.0,-100.00,North,5,17.0,21.0,90,0.00,,,-99.99,,2013-03-16 08:12:00,
2013-03-16 03:23:00,36.0,34.0,-100.00,North,0,13.0,20.0,90,0.00,,,-99.99,,2013-03-16 08:23:00,
2013-03-16 03:32:00,36.0,33.0,-100.00,NNW,340,15.0,20.0,90,0.00,,,-99.99,,2013-03-16 08:32:00,
2013-03-16 03:42:00,36.0,33.0,-100.00,NNW,340,15.0,20.0,90,0.00,,,-99.99,,2013-03-16 08:42:00,
2013-03-16 03:52:00,36.0,33.0,-100.00,North,355,13.0,23.0,90,0.00,,,-99.99,,2013-03-16 08:52:00,
2013-03-16 04:01:00,36.0,33.0,-100.00,North,355,13.0,23.0,90,0.00,,,-99.99,,2013-03-16 09:01:00,
2013-03-16 04:12:00,36.0,33.0,-100.00,North,350,16.0,21.0,90,0.00,,,-99.99,,2013-03-16 09:12:00,
2013-03-16 04:22:00,36.0,33.0,-100.00,North,0,20.0,24.0,90,0.00,,,-99.99,,2013-03-16 09:22:00,
2013-03-16 04:33:00,36.0,33.0,-100.00,North,5,18.0,24.0,88,0.00,,,-99.99,,2013-03-16 09:33:00,
2013-03-16 04:42:00,36.0,33.0,-100.00,North,5,18.0,24.0,88,0.00,,,-99.99,,2013-03-16 09:42:00,
2013-03-16 04:52:00,36.0,32.0,-100.00,North,350,12.0,27.0,85,0.00,,,-99.99,,2013-03-16 09:52:00,
2013-03-16 05:03:00,36.0,32.0,-100.00,North,350,12.0,27.0,85,0.00,,,-99.99,,2013-03-16 10:03:00,
2013-03-16 05:12:00,36.0,32.0,-100.00,North,0,19.0,26.0,84,0.00,,,-99.99,,2013-03-16 10:12:00,
2013-03-16 05:22:00,36.0,32.0,-100.00,North,0,17.0,27.0,83,0.00,,,-99.99,,2013-03-16 10:22:00,
2013-03-16 05:32:00,36.0,31.0,-100.00,North,350,15.0,21.0,81,0.00,,,-99.99,,2013-03-16 10:32:00,
2013-03-16 05:42:00,36.0,31.0,-100.00,North,350,15.0,21.0,81,0.00,,,-99.99,,2013-03-16 10:42:00,
2013-03-16 05:52:00,37.0,31.0,-100.00,North,350,14.0,25.0,79,0.00,,,-99.99,,2013-03-16 10:52:00,
2013-03-16 06:03:00,37.0,31.0,-100.00,North,350,14.0,25.0,79,0.00,,,-99.99,,2013-03-16 11:03:00,
2013-03-16 06:12:00,37.0,31.0,-100.00,North,5,12.0,30.0,78,0.00,,,-99.99,,2013-03-16 11:12:00,
2013-03-16 06:22:00,36.0,31.0,-100.00,NNW,345,14.0,21.0,78,0.00,,,-99.99,,2013-03-16 11:22:00,
2013-03-16 06:32:00,36.0,30.0,-100.00,NNW,340,16.0,23.0,77,0.00,,,-99.99,,2013-03-16 11:32:00,
2013-03-16 06:42:00,36.0,30.0,-100.00,NNW,340,16.0,23.0,77,0.00,,,-99.99,,2013-03-16 11:42:00,
2013-03-16 06:52:00,36.0,29.0,-100.00,NNW,340,17.0,26.0,75,0.00,,,-99.99,,2013-03-16 11:52:00,
2013-03-16 07:02:00,36.0,29.0,-100.00,NNW,340,17.0,26.0,75,0.00,,,-99.99,,2013-03-16 12:02:00,
2013-03-16 07:12:00,36.0,29.0,-100.00,North,0,11.0,22.0,74,0.00,,,-99.99,,2013-03-16 12:12:00,
2013-03-16 07:22:00,36.0,29.0,-100.00,North,355,17.0,25.0,74,0.00,,,-99.99,,2013-03-16 12:22:00,
2013-03-16 07:32:00,36.0,28.0,-100.00,North,0,17.0,25.0,73,0.00,,,-99.99,,2013-03-16 12:32:00,
2013-03-16 07:42:00,36.0,28.0,-100.00,North,0,17.0,25.0,73,0.00,,,-99.99,,2013-03-16 12:42:00,
2013-03-16 07:52:00,35.0,27.0,-100.00,North,0,19.0,24.0,72,0.00,,,-99.99,,2013-03-16 12:52:00,
2013-03-16 08:02:00,35.0,27.0,-100.00,North,0,19.0,24.0,72,0.00,,,-99.99,,2013-03-16 13:02:00,
2013-03-16 08:12:00,35.0,27.0,-100.00,North,10,17.0,28.0,71,0.00,,,-99.99,,2013-03-16 13:12:00,
2013-03-16 08:22:00,35.0,27.0,-100.00,North,0,21.0,30.0,71,0.00,,,-99.99,,2013-03-16 13:22:00,
2013-03-16 08:32:00,35.0,27.0,-100.00,North,10,16.0,28.0,71,0.00,,,-99.99,,2013-03-16 13:32:00,
2013-03-16 08:42:00,35.0,27.0,-100.00,North,10,16.0,28.0,71,0.00,,,-99.99,,2013-03-16 13:42:00,
2013-03-16 08:52:00,35.0,26.0,-100.00,North,5,17.0,24.0,70,0.00,,,-99.99,,2013-03-16 13:52:00,
2013-03-16 09:02:00,35.0,26.0,-100.00,North,5,17.0,24.0,70,0.00,,,-99.99,,2013-03-16 14:02:00,
2013-03-16 09:12:00,35.0,26.0,-100.00,North,5,17.0,23.0,70,0.00,,,-99.99,,2013-03-16 14:12:00,
2013-03-16 09:22:00,35.0,26.0,-100.00,North,5,17.0,26.0,69,0.00,,,-99.99,,2013-03-16 14:22:00,
2013-03-16 09:32:00,35.0,26.0,-100.00,North,0,17.0,24.0,68,0.00,,,-99.99,,2013-03-16 14:32:00,
2013-03-16 09:42:00,35.0,26.0,-100.00,North,0,17.0,24.0,68,0.00,,,-99.99,,2013-03-16 14:42:00,
2013-03-16 09:52:00,35.0,25.0,-100.00,North,0,14.0,24.0,66,0.00,,,-99.99,,2013-03-16 14:52:00,
2013-03-16 10:02:00,35.0,25.0,-100.00,North,0,14.0,24.0,66,0.00,,,-99.99,,2013-03-16 15:02:00,
2013-03-16 10:12:00,35.0,25.0,-100.00,North,5,15.0,24.0,67,0.00,,,-99.99,,2013-03-16 15:12:00,
2013-03-16 10:22:00,35.0,25.0,-100.00,North,10,15.0,24.0,67,0.00,,,-99.99,,2013-03-16 15:22:00,
2013-03-16 10:33:00,36.0,26.0,-100.00,North,0,17.0,22.0,66,0.00,,,-99.99,,2013-03-16 15:33:00,
2013-03-16 10:43:00,36.0,26.0,-100.00,North,0,17.0,22.0,66,0.00,,,-99.99,,2013-03-16 15:43:00,
2013-03-16 10:52:00,35.0,25.0,-100.00,NNE,20,16.0,22.0,65,0.00,,,-99.99,,2013-03-16 15:52:00,
2013-03-16 11:03:00,35.0,25.0,-100.00,NNE,20,16.0,22.0,65,0.00,,,-99.99,,2013-03-16 16:03:00,
2013-03-16 11:12:00,35.0,24.0,-100.00,North,0,16.0,21.0,64,0.00,,,-99.99,,2013-03-16 16:12:00,
2013-03-16 11:22:00,35.0,24.0,-100.00,North,5,11.0,23.0,64,0.00,,,-99.99,,2013-03-16 16:22:00,
2013-03-16 11:33:00,35.0,24.0,-100.00,North,5,17.0,20.0,63,0.00,,,-99.99,,2013-03-16 16:33:00,
2013-03-16 11:42:00,35.0,24.0,-100.00,North,5,17.0,20.0,63,0.00,,,-99.99,,2013-03-16 16:42:00,
2013-03-16 11:52:00,35.0,24.0,-100.00,NNE,15,14.0,21.0,64,0.00,,,-99.99,,2013-03-16 16:52:00,
2013-03-16 12:03:00,35.0,24.0,-100.00,NNE,15,14.0,21.0,64,0.00,,,-99.99,,2013-03-16 17:03:00,
2013-03-16 12:12:00,35.0,24.0,-100.00,North,5,17.0,23.0,64,0.00,,,-99.99,,2013-03-16 17:12:00,
2013-03-16 12:22:00,35.0,24.0,-100.00,NNE,30,17.0,22.0,63,0.00,,,-99.99,,2013-03-16 17:22:00,
2013-03-16 12:32:00,35.0,23.0,-100.00,NNE,15,17.0,22.0,61,0.00,,,-99.99,,2013-03-16 17:32:00,
2013-03-16 12:42:00,35.0,23.0,-100.00,NNE,15,17.0,22.0,61,0.00,,,-99.99,,2013-03-16 17:42:00,
2013-03-16 12:52:00,36.0,23.0,-100.00,North,0,12.0,19.0,59,0.00,,,-99.99,,2013-03-16 17:52:00,
2013-03-16 13:02:00,36.0,23.0,-100.00,North,0,12.0,19.0,59,0.00,,,-99.99,,2013-03-16 18:02:00,
2013-03-16 13:13:00,36.0,22.0,-100.00,NNE,15,12.0,18.0,57,0.00,,,-99.99,,2013-03-16 18:13:00,
2013-03-16 13:22:00,36.0,22.0,-100.00,North,5,16.0,21.0,57,0.00,,,-99.99,,2013-03-16 18:22:00,
2013-03-16 13:33:00,36.0,22.0,-100.00,North,10,17.0,21.0,55,0.00,,,-99.99,,2013-03-16 18:33:00,
2013-03-16 13:42:00,36.0,22.0,-100.00,North,10,17.0,21.0,55,0.00,,,-99.99,,2013-03-16 18:42:00,
2013-03-16 13:52:00,37.0,22.0,-100.00,North,5,13.0,21.0,53,0.00,,,-99.99,,2013-03-16 18:52:00,
2013-03-16 14:02:00,37.0,22.0,-100.00,North,5,13.0,21.0,53,0.00,,,-99.99,,2013-03-16 19:02:00,
2013-03-16 14:12:00,37.0,21.0,-100.00,NNE,25,12.0,19.0,52,0.00,,,-99.99,,2013-03-16 19:12:00,
2013-03-16 14:22:00,38.0,21.0,-100.00,North,0,10.0,17.0,51,0.00,,,-99.99,,2013-03-16 19:22:00,
2013-03-16 14:32:00,38.0,21.0,-100.00,NNE,15,11.0,18.0,49,0.00,,,-99.99,,2013-03-16 19:32:00,
2013-03-16 14:42:00,38.0,21.0,-100.00,NNE,15,11.0,18.0,49,0.00,,,-99.99,,2013-03-16 19:42:00,
2013-03-16 14:52:00,38.0,20.0,-100.00,NNE,20,12.0,19.0,47,0.00,,,-99.99,,2013-03-16 19:52:00,
2013-03-16 15:02:00,38.0,20.0,-100.00,NNE,20,12.0,19.0,47,0.00,,,-99.99,,2013-03-16 20:02:00,
2013-03-16 15:12:00,38.0,20.0,-100.00,North,0,11.0,15.0,47,0.00,,,-99.99,,2013-03-16 20:12:00,
2013-03-16 15:22:00,39.0,20.0,-100.00,NNE,15,11.0,18.0,47,0.00,,,-99.99,,2013-03-16 20:22:00,
2013-03-16 15:32:00,38.0,20.0,-100.00,NNE,20,10.0,17.0,46,0.00,,,-99.99,,2013-03-16 20:32:00,
2013-03-16 15:42:00,38.0,20.0,-100.00,NNE,20,10.0,17.0,46,0.00,,,-99.99,,2013-03-16 20:42:00,
2013-03-16 15:52:00,38.0,19.0,-100.00,NNE,20,11.0,16.0,46,0.00,,,-99.99,,2013-03-16 20:52:00,
2013-03-16 16:02:00,38.0,19.0,-100.00,NNE,20,11.0,16.0,46,0.00,,,-99.99,,2013-03-16 21:02:00,
2013-03-16 16:12:00,37.0,19.0,-100.00,NNE,15,11.0,16.0,47,0.00,,,-99.99,,2013-03-16 21:12:00,
2013-03-16 16:22:00,38.0,19.0,-100.00,NNE,20,11.0,16.0,47,0.00,,,-99.99,,2013-03-16 21:22:00,
2013-03-16 16:32:00,37.0,19.0,-100.00,NNE,30,12.0,16.0,47,0.00,,,-99.99,,2013-03-16 21:32:00,
2013-03-16 16:43:00,37.0,19.0,-100.00,NNE,30,12.0,16.0,47,0.00,,,-99.99,,2013-03-16 21:43:00,
2013-03-16 16:52:00,37.0,20.0,-100.00,NNE,30,7.0,16.0,48,0.00,,,-99.99,,2013-03-16 21:52:00,
2013-03-16 17:03:00,37.0,20.0,-100.00,NNE,30,7.0,16.0,48,0.00,,,-99.99,,2013-03-16 22:03:00,
2013-03-16 17:12:00,37.0,20.0,-100.00,NNE,25,9.0,12.0,48,0.00,,,-99.99,,2013-03-16 22:12:00,
2013-03-16 17:22:00,37.0,20.0,-100.00,NNE,30,9.0,14.0,48,0.00,,,-99.99,,2013-03-16 22:22:00,
2013-03-16 17:33:00,37.0,19.0,-100.00,NNE,25,7.0,13.0,48,0.00,,,-99.99,,2013-03-16 22:33:00,
2013-03-16 17:42:00,37.0,19.0,-100.00,NNE,25,7.0,13.0,48,0.00,,,-99.99,,2013-03-16 22:42:00,
2013-03-16 17:52:00,36.0,19.0,-100.00,NE,45,7.0,12.0,48,0.00,,,-99.99,,2013-03-16 22:52:00,
2013-03-16 18:02:00,36.0,19.0,-100.00,NE,45,7.0,12.0,48,0.00,,,-99.99,,2013-03-16 23:02:00,
2013-03-16 18:12:00,36.0,19.0,-100.00,NE,50,9.0,13.0,48,0.00,,,-99.99,,2013-03-16 23:12:00,
2013-03-16 18:22:00,36.0,19.0,-100.00,NE,40,7.0,12.0,49,0.00,,,-99.99,,2013-03-16 23:22:00,
2013-03-16 18:33:00,36.0,19.0,-100.00,NE,55,7.0,12.0,49,0.00,,,-99.99,,2013-03-16 23:33:00,
2013-03-16 18:42:00,36.0,19.0,-100.00,NE,55,7.0,12.0,49,0.00,,,-99.99,,2013-03-16 23:42:00,
2013-03-16 18:52:00,35.0,19.0,-100.00,NNE,30,7.0,13.0,51,0.00,,,-99.99,,2013-03-16 23:52:00,
2013-03-16 19:01:00,35.0,19.0,-100.00,NNE,30,7.0,13.0,51,0.00,,,-99.99,,2013-03-17 00:01:00,
2013-03-16 19:12:00,35.0,19.0,-100.00,NE,45,9.0,11.0,52,0.00,,,-99.99,,2013-03-17 00:12:00,
2013-03-16 19:22:00,35.0,19.0,-100.00,NNE,30,6.0,11.0,52,0.00,,,-99.99,,2013-03-17 00:22:00,
2013-03-16 19:32:00,34.0,19.0,-100.00,NE,45,9.0,13.0,53,0.00,,,-99.99,,2013-03-17 00:32:00,
2013-03-16 19:42:00,34.0,19.0,-100.00,NE,45,9.0,13.0,53,0.00,,,-99.99,,2013-03-17 00:42:00,
2013-03-16 19:52:00,33.0,19.0,-100.00,NE,35,7.0,12.0,54,0.00,,,-99.99,,2013-03-17 00:52:00,
2013-03-16 20:02:00,33.0,19.0,-100.00,NE,35,7.0,12.0,54,0.00,,,-99.99,,2013-03-17 01:02:00,
2013-03-16 20:12:00,33.0,19.0,-100.00,NNE,30,7.0,15.0,55,0.00,,,-99.99,,2013-03-17 01:12:00,
2013-03-16 20:22:00,33.0,19.0,-100.00,NE,40,8.0,12.0,55,0.00,,,-99.99,,2013-03-17 01:22:00,
2013-03-16 20:32:00,32.0,19.0,-100.00,NNE,25,9.0,12.0,57,0.00,,,-99.99,,2013-03-17 01:32:00,
2013-03-16 20:42:00,32.0,19.0,-100.00,NNE,25,9.0,12.0,57,0.00,,,-99.99,,2013-03-17 01:42:00,
2013-03-16 20:52:00,32.0,19.0,-100.00,NNE,25,7.0,11.0,59,0.00,,,-99.99,,2013-03-17 01:52:00,
2013-03-16 21:02:00,32.0,19.0,-100.00,NNE,25,7.0,11.0,59,0.00,,,-99.99,,2013-03-17 02:02:00,
2013-03-16 21:12:00,32.0,19.0,-100.00,NNE,25,6.0,9.0,59,0.00,,,-99.99,,2013-03-17 02:12:00,
2013-03-16 21:22:00,31.0,20.0,-100.00,NNE,25,9.0,12.0,60,0.00,,,-99.99,,2013-03-17 02:22:00,
2013-03-16 21:33:00,31.0,19.0,-100.00,NNE,20,9.0,14.0,61,0.00,,,-99.99,,2013-03-17 02:33:00,
2013-03-16 21:42:00,31.0,19.0,-100.00,NNE,20,9.0,14.0,61,0.00,,,-99.99,,2013-03-17 02:42:00,
2013-03-16 21:52:00,31.0,20.0,-100.00,NNE,15,9.0,12.0,63,0.00,,,-99.99,,2013-03-17 02:52:00,
2013-03-16 22:02:00,31.0,20.0,-100.00,NNE,15,9.0,12.0,63,0.00,,,-99.99,,2013-03-17 03:02:00,
2013-03-16 22:12:00,31.0,20.0,-100.00,NNE,15,10.0,13.0,63,0.00,,,-99.99,,2013-03-17 03:12:00,
2013-03-16 22:22:00,30.0,20.0,-100.00,North,10,9.0,13.0,63,0.00,,,-99.99,,2013-03-17 03:22:00,
2013-03-16 22:33:00,30.0,20.0,-100.00,NNE,15,10.0,15.0,64,0.00,,,-99.99,,2013-03-17 03:33:00,
2013-03-16 22:43:00,30.0,20.0,-100.00,NNE,15,10.0,15.0,64,0.00,,,-99.99,,2013-03-17 03:43:00,
2013-03-16 22:52:00,30.0,20.0,-100.00,North,0,10.0,13.0,66,0.00,,,-99.99,,2013-03-17 03:52:00,
2013-03-16 23:03:00,30.0,20.0,-100.00,North,0,10.0,13.0,66,0.00,,,-99.99,,2013-03-17 04:03:00,
2013-03-16 23:12:00,29.0,20.0,-100.00,North,10,11.0,16.0,66,0.00,,,-99.99,,2013-03-17 04:12:00,
2013-03-16 23:23:00,29.0,20.0,-100.00,North,10,11.0,17.0,67,0.00,,,-99.99,,2013-03-17 04:23:00,
2013-03-16 23:32:00,29.0,20.0,-100.00,North,10,12.0,17.0,67,0.00,,,-99.99,,2013-03-17 04:32:00,
2013-03-16 23:42:00,29.0,20.0,-100.00,North,10,12.0,17.0,67,0.00,,,-99.99,,2013-03-17 04:42:00,
2013-03-16 23:53:00,29.0,20.0,-100.00,North,10,14.0,18.0,68,0.00,,,-99.99,,2013-03-17 04:53:00,